Zurück zum Katalog

STARLINK-37979

AktivKommunikationSSO
NORAD 69689·PAYLOAD·🇺🇸 United States

Gestartet Jun 25, 2026 von Vandenberg Space Force Base

Loading…

Nächste Überflüge (nächste 24 Stunden)

TLE

AktuellSource: CelesTrak SupGP

Epoche: Sep 14, 2026, 22:46 UTC

1 69689C 26145N   26257.94909722  .00085438  00000+0  26530-2 0  2572
2 69689  97.2843 104.7030 0001717  93.8203 251.7363 15.33385838    14

Verfolge STARLINK-37979 in Echtzeit mit AllMySat

Download on the App Store